Home > Time Zones > World Clock > Weather > Togo > Lomé > Past weeks

Flag for Togo Weather past 2 weeks in Lomé, Togo

Now
79 °F

Passing clouds.


Feels Like: 82 °F
Forecast: N/A
Wind: 13 mph from Southwest

Location: Lome Airport

Current Time: Aug 28, 2015 at 8:16:29 PM

Latest Report: Aug 28, 2015 at 7:00 PM


Visibility: N/A

Pressure: 29.92 "Hg

Humidity: 89%

Dew point: 75 °F

Location of LoméLocation

Historic Weather in Lomé — Graph

°F

Lomé temperature yesterday

Maximum temperature yesterday: 86 °F (at 12:00 PM)
Minimum temperature yesterday: 77 °F (at 12:00 AM)
Average temperature yesterday: 79 °F

Past Weeks' High & Low Weather Summary

 TemperatureHumidityPressure
High86 °F (Aug 15, 11:00 AM)100% (Aug 13, 9:00 PM)30.04 "Hg (Aug 13, 9:00 PM)
Low75 °F (Aug 20, 4:00 AM)66% (Aug 15, 12:00 PM)29.83 "Hg (Aug 23, 4:00 PM)
Average79 °F88%29.93 "Hg
* Reported Aug 13 7:00 PM — Aug 28 7:00 PM, Lomé, Weather by CustomWeather, © 2015

Note: Actual official high and low records may vary slightly from our data, if they occured in-between our weather recording intervals... More about our weather records

Advertising

Lomé weather history for previous 24 hours

 ConditionsComfort  
Time TempWeatherWind HumidityBarometerVisibility
7:00 PM
Fri, Aug 28
79 °FPassing clouds.13 mph89%29.92 "HgN/A
6:00 PM79 °FScattered clouds.14 mph89%29.89 "HgN/A
5:00 PM79 °FPassing clouds.15 mph89%29.86 "HgN/A
4:00 PM81 °FPassing clouds.16 mph84%29.86 "HgN/A
3:00 PM82 °FPassing clouds.18 mph79%29.86 "HgN/A
2:00 PM84 °FScattered clouds.20 mph74%29.89 "HgN/A
1:00 PM84 °FScattered clouds.17 mph74%29.92 "HgN/A
12:00 PM82 °FScattered clouds.16 mph79%29.95 "HgN/A
11:00 AM84 °FScattered clouds.15 mph74%29.95 "HgN/A
10:00 AM82 °FScattered clouds.16 mph74%29.95 "HgN/A
9:00 AM82 °FScattered clouds.17 mph79%29.95 "HgN/A
8:00 AM81 °FScattered clouds.12 mph79%29.95 "HgN/A
7:00 AM77 °FScattered clouds.9 mph89%29.92 "HgN/A
6:00 AM77 °FBroken clouds.9 mph89%29.89 "HgN/A
5:00 AM77 °FPartly cloudy.10 mph89%29.89 "HgN/A
4:00 AM77 °FPassing clouds.10 mph89%29.89 "HgN/A
3:00 AM77 °FPassing clouds.12 mph94%29.86 "HgN/A
2:00 AM77 °FPassing clouds.14 mph94%29.86 "HgN/A
1:00 AM77 °FPassing clouds.14 mph94%29.89 "HgN/A
12:00 AM77 °FPassing clouds.12 mph94%29.92 "HgN/A
11:00 PM
Thu, Aug 27
77 °FPassing clouds.12 mph94%29.92 "HgN/A
10:00 PM77 °FPassing clouds.13 mph94%29.92 "HgN/A
9:00 PM77 °FPassing clouds.15 mph94%29.92 "HgN/A
8:00 PM77 °FPassing clouds.14 mph94%29.89 "HgN/A
Weather by CustomWeather, © 2015

See weather overviewHow to use our weather pages